INTELSAT 18 (IS-18)

Last updated on Mon Oct 14 2024 00:02:39 GMT+0000 (Coordinated Universal Time)

1 37834U 11056A 24287.01438360 .00000051 00000+0 00000+0 0 9990 2 37834 0.0206 205.6469 0001921 349.3560 12.2338 1.00267822 47671
UTC large
Height (km)
Speed (km/s)
/
Latitude / Longitude
Inclination (degrees)
Orbital Period (minutes)
Azimuth
Elevation
Range (km)
Doppler Factor

Next 0 passes for location: London (51.5072 / 0.1276)

Sorry there are no passes over London.